Location: Estes Park
(40.3770°N, 105.5210°W)
Time: 03:35:27
(UTC-06:00)

N. Korean satellite - Pass Details

Date: 08 October 2017
Orbit: 459 x 517 km, 97.2° (Epoch: 23 October)

Event Time Altitude Azimuth Distance (km) Brightness Sun altitude
Rises 19:43:33 0° 192° (SSW) 2,572 10.3 -14.4°
Reaches altitude 10° 19:45:52 10° 205° (SSW) 1,684 9.6 -14.8°
Maximum altitude 19:48:57 26° 264° (W) 985 9.0 -15.4°
Drops below altitude 10° 19:52:02 10° 323° (NW) 1,668 9.9 -16.0°
Sets 19:54:19 0° 336° (NNW) 2,542 10.6 -16.4°
